{"data":{"norad_id":31102,"epoch":"2026-09-19T15:06:18.159840Z","epoch_age_seconds":89606,"freshness":"FRESH","line1":"1 31102U 07009A   26262.62937685 -.00000005  00000+0  00000+0 0  9991","line2":"2 31102   1.4348  82.5650 0002753  82.7286 301.1351  1.00271712 47517","mean_motion":1.00271712,"eccentricity":0.0002753,"inclination_deg":1.4348,"raan_deg":82.565,"arg_perigee_deg":82.7286,"mean_anomaly_deg":301.1351,"bstar":0,"rev_number":4751,"period_min":1436.0979495393,"perigee_km":35775.00746941,"apogee_km":35798.223382096,"semimajor_km":42164.752425753,"source":"CELESTRAK","updated_at":"2026-09-20T09:00:35.129116Z"}}